Weather History for Pierre, SD

Change the Weather History Date:

Saturday, July 5, 2014

  Actual Average Record
Temperature  
Mean Temperature 80 °F 74 °F  
Max Temperature 94 °F 87 °F 113 °F (1989)
Min Temperature 65 °F 61 °F 44 °F (1972)
Degree Days  
Heating Degree Days 0 0  
Month to date heating degree days 9 0  
Since 1 June heating degree days 76 53  
Since 1 July heating degree days 9 0  
Cooling Degree Days 15 9  
Month to date cooling degree days 24 44  
Year to date cooling degree days 131 210  
Since 1 June cooling degree days 83 178  
Growing Degree Days 30 (Base 50)    
Moisture  
Dew Point 67 °F    
Average Humidity 66    
Maximum Humidity 93    
Minimum Humidity 39    
Precipitation  
Precipitation 0.00 in 0.08 in 1.20 in (1908)
Month to date precipitation 0.05 0.41  
Year to date precipitation 12.37 11.18  
Sea Level Pressure  
Sea Level Pressure 29.81 in    
Wind  
Wind Speed 5 mph (SSE)    
Max Wind Speed 14 mph    
Max Gust Speed 16 mph    
Visibility 10 miles    
Events      
T = Trace of Precipitation, MM = Missing Value Source: NWS Daily Summary

Daily Weather History Graph

Daily Weather History Graph

Search for Another Location

Airport:

Trip Planner

Search our weather history database for the weather conditions in past years. The results will help you decide how hot, cold, wet, or windy it might be!

Date:

Astronomy

Jul. 05, 2014 Rise Set
Actual Time 6:03 AM CDT 9:28 PM CDT
Civil Twilight 5:26 AM CDT 10:04 PM CDT
Nautical Twilight 4:39 AM CDT 10:51 PM CDT
Astronomical Twilight 3:39 AM CDT 11:51 PM CDT
Moon 2:18 PM CDT (7/5) 1:03 AM CDT (7/5)
Length of Visible Light 16h 37m
Length of Day
15h 24m
First Quarter, 52% of the Moon is Illuminated
Jul 5
First Quarter
Jul 12
Full
Jul 18
Last Quarter
Jul 26
New
Aug 3
First Quarter

Hourly Weather History & Observations

Time (CDT) Temp. Heat Index Dew Point Humidity Pressure Visibility Wind Dir Wind Speed Gust Speed Precip Events Conditions
12:53 AM 73.9 °F - 66.9 °F 79% 29.84 in 10.0 mi SE 8.1 mph - N/A   Clear
1:53 AM 72.0 °F - 66.9 °F 84% 29.83 in 10.0 mi SE 8.1 mph - N/A   Clear
2:53 AM 69.1 °F - 66.0 °F 90% 29.83 in 10.0 mi SE 4.6 mph - N/A   Clear
3:53 AM 66.9 °F - 64.9 °F 93% 29.81 in 10.0 mi ESE 5.8 mph - N/A   Clear
4:53 AM 68.0 °F - 64.9 °F 90% 29.82 in 10.0 mi SE 9.2 mph - N/A   Clear
5:53 AM 66.0 °F - 64.0 °F 93% 29.83 in 10.0 mi SE 5.8 mph - N/A   Clear
6:53 AM 66.0 °F - 63.0 °F 90% 29.83 in 10.0 mi ESE 3.5 mph - N/A   Clear
7:53 AM 69.1 °F - 64.9 °F 87% 29.85 in 10.0 mi SE 9.2 mph - N/A   Clear
8:53 AM 72.0 °F - 66.0 °F 81% 29.85 in 10.0 mi SSW 5.8 mph - N/A   Clear
9:53 AM 77.0 °F - 64.9 °F 66% 29.86 in 10.0 mi Calm Calm - N/A   Clear
10:53 AM 81.0 °F 83.0 °F 66.0 °F 60% 29.85 in 10.0 mi Calm Calm - N/A   Clear
11:53 AM 84.9 °F 90.1 °F 71.1 °F 63% 29.83 in 10.0 mi Calm Calm - N/A   Clear
12:53 PM 87.1 °F 93.6 °F 72.0 °F 61% 29.83 in 10.0 mi SE 5.8 mph - N/A   Clear
1:53 PM 90.0 °F 100.2 °F 75.0 °F 61% 29.82 in 10.0 mi North - - N/A   Clear
2:53 PM 91.9 °F 103.2 °F 75.0 °F 58% 29.80 in 10.0 mi SE 10.4 mph - N/A   Clear
3:53 PM 93.0 °F 97.4 °F 68.0 °F 44% 29.81 in 10.0 mi South 5.8 mph - N/A   Clear
4:53 PM 93.9 °F 97.5 °F 66.9 °F 41% 29.79 in 10.0 mi SSE 8.1 mph - N/A   Clear
5:53 PM 93.0 °F 95.0 °F 64.9 °F 39% 29.78 in 10.0 mi South 9.2 mph - N/A   Clear
6:53 PM 90.0 °F 92.4 °F 66.0 °F 45% 29.77 in 10.0 mi South 9.2 mph - N/A   Clear
7:53 PM 87.1 °F 89.9 °F 66.9 °F 51% 29.78 in 10.0 mi South 4.6 mph - N/A   Clear
8:53 PM 82.9 °F 85.8 °F 68.0 °F 60% 29.77 in 10.0 mi SSE 6.9 mph - N/A   Clear
9:53 PM 79.0 °F - 69.1 °F 72% 29.77 in 10.0 mi Calm Calm - N/A   Clear
10:53 PM 79.0 °F - 66.0 °F 64% 29.78 in 10.0 mi South 5.8 mph - N/A   Clear
11:53 PM 75.0 °F - 64.9 °F 71% 29.78 in 10.0 mi Calm Calm - N/A   Clear